Probability
5 4 6 8 7 6 4 2 1 0 0 0 1 3 4 3 2 1 0 0 0 0 0 0 0 0 0 0 0 1 3 3 2 1 0 0 0 0 1 2 3 4 5
6 6 7 8 7 6 4 2 1 0 1 1 2 4 4 3 2 0 0 0 0 0 0 0 0 0 0 0 0 0 1 2 2 1 1 1 0 0 0 1 3 4 4
6 6 7 8 7 6 4 3 1 1 2 3 5 6 5 3 2 1 0 0 0 1 1 1 1 0 0 0 0 0 0 1 1 1 2 2 1 1 0 1 3 4 4
7 8 9 8 8 6 4 3 3 2 2 3 5 5 4 3 3 1 1 1 1 2 2 2 1 0 0 0 0 0 1 2 1 1 3 3 2 2 1 1 3 4 4
10 12 13 12 10 8 6 4 4 3 2 3 4 4 3 3 3 3 2 2 2 2 2 2 1 0 1 1 0 1 3 4 3 2 2 2 2 3 4 4 4 4 5
14 16 16 16 14 11 9 6 5 4 3 3 3 3 3 3 3 3 3 3 1 1 1 1 0 0 1 2 1 1 3 5 4 2 2 1 2 5 7 6 6 6 6
15 17 18 18 16 14 12 9 7 4 3 3 4 4 4 4 3 3 2 2 1 0 0 0 0 0 1 2 2 3 4 5 4 3 2 2 4 6 8 7 6 6 6
13 14 17 17 17 16 15 13 10 7 5 5 5 5 5 4 3 1 1 1 0 0 0 0 0 0 1 1 2 4 6 5 4 2 3 4 6 7 7 7 6 6 5
10 11 12 13 16 18 18 16 15 11 9 7 6 4 4 4 3 1 0 0 0 0 0 0 0 1 2 2 3 4 5 5 4 3 4 5 7 7 6 6 6 5 4
10 10 9 10 14 16 17 18 17 14 11 8 5 3 3 3 2 1 0 1 1 0 1 2 2 2 3 3 3 4 5 5 5 5 5 5 7 7 6 6 5 3 2
12 12 10 10 12 13 15 16 16 15 12 8 4 3 3 1 1 1 2 3 4 3 4 5 4 3 3 3 4 5 5 5 5 5 5 5 6 7 6 5 4 3 2
17 16 14 12 12 12 13 15 15 14 12 9 5 4 3 2 1 2 5 6 7 7 7 7 6 4 3 3 4 5 5 5 3 2 2 4 6 5 4 3 3 3 2
22 19 17 15 14 13 14 15 15 15 14 12 8 5 4 4 2 4 7 7 6 6 6 6 5 3 2 3 3 3 4 4 2 0 1 3 4 3 2 2 3 3 1
24 22 21 20 20 20 19 18 16 16 16 15 12 8 7 6 5 6 8 7 4 3 2 2 2 2 2 2 1 2 4 4 2 1 1 2 3 2 2 3 4 4 2
27 27 26 28 31 30 26 22 19 18 17 17 16 12 9 9 7 7 8 6 4 1 0 1 2 2 2 2 2 3 5 6 4 2 1 1 1 2 3 3 4 4 2
36 35 33 35 39 37 29 23 21 19 17 17 16 14 11 10 9 8 7 5 4 2 0 1 2 3 3 4 4 5 6 6 5 2 1 0 1 2 3 3 3 3 2
46 45 41 38 40 39 32 26 22 19 17 17 16 14 12 9 8 9 8 7 5 4 2 1 2 4 4 4 5 5 6 6 5 3 1 1 1 2 3 2 1 1 1
52 53 46 39 39 39 35 31 26 21 20 18 17 15 13 10 8 10 11 10 8 6 4 2 2 4 4 3 3 3 4 5 5 4 3 3 3 2 2 1 0 0 0
56 56 51 44 42 40 37 35 31 27 23 19 17 17 15 12 11 11 12 12 11 9 6 3 3 4 4 3 2 2 2 2 2 2 3 3 4 3 1 0 0 0 0
60 61 59 55 51 45 40 37 34 28 23 18 17 16 15 13 13 12 12 12 12 11 9 6 5 5 4 3 2 1 0 1 1 1 1 2 3 3 2 1 1 1 1
65 66 66 63 58 51 43 39 33 25 20 17 16 16 15 14 13 13 13 13 13 13 11 9 8 8 5 3 2 0 0 2 3 2 2 2 3 3 3 3 4 4 3
63 65 65 62 57 50 44 39 32 24 19 18 18 18 17 15 13 13 13 13 13 12 12 10 10 9 8 5 3 1 0 1 3 4 4 3 4 4 4 4 5 6 5
55 58 59 57 54 48 42 37 32 27 22 21 22 21 19 16 14 13 14 14 13 12 11 10 10 11 11 9 5 3 2 3 4 5 4 4 5 6 5 5 5 6 6
45 50 53 54 52 48 41 36 34 32 28 25 23 22 20 17 14 13 14 14 14 14 13 11 12 14 14 11 8 5 5 5 6 5 4 4 5 6 6 7 7 5 5
40 43 48 51 50 46 41 36 34 33 30 27 25 22 19 17 15 14 14 15 15 17 15 13 13 15 15 12 8 7 6 7 7 6 5 4 4 5 7 9 9 7 5
38 40 45 49 48 43 38 34 33 32 30 27 25 22 19 17 17 16 15 15 16 18 17 15 14 15 16 13 8 7 7 7 7 7 6 4 4 6 9 11 10 8 6
Wind_Speed
14 14 14 12 11 10 9 9 9 9 8 8 8 8 9 9 8 8 8 7 7 7 7 7 7 7 6 6 6 7 6 6 7 9 9 10 10 10 10 10 10 9 12
16 15 15 12 11 10 9 9 8 8 8 8 8 8 8 8 8 8 8 7 6 6 7 7 7 7 6 6 5 5 6 6 6 8 10 10 10 10 9 9 9 8 11
16 15 14 12 11 10 9 9 8 8 7 7 7 7 7 7 7 8 7 7 6 5 6 6 6 6 6 6 6 5 5 4 4 6 8 7 9 10 10 10 11 11 11
15 13 13 12 11 10 9 9 8 8 7 7 7 7 7 7 7 7 7 6 6 5 6 6 6 6 6 6 5 5 4 3 2 4 5 6 7 11 11 10 11 11 11
14 13 13 13 12 11 10 9 8 7 7 6 6 6 6 6 6 6 6 6 6 5 6 6 6 6 5 5 4 3 2 1 0 2 4 7 7 11 12 11 11 11 11
14 15 14 13 12 11 10 9 8 8 7 6 6 6 6 6 5 5 5 5 5 5 5 5 5 5 5 4 3 2 1 0 0 1 6 8 7 11 12 11 11 10 10
14 14 14 13 12 10 10 9 8 7 6 6 5 5 5 5 4 4 4 4 4 4 4 4 4 4 3 3 2 1 0 1 1 2 6 7 8 12 12 11 10 9 9
14 14 13 13 12 11 10 9 8 7 6 5 4 4 4 3 3 3 3 3 3 3 3 4 4 3 2 2 1 0 1 2 1 4 7 8 10 12 12 11 10 9 9
14 13 12 12 11 11 10 9 8 7 5 4 4 3 3 2 3 3 3 2 1 2 3 3 4 3 2 1 1 0 1 1 2 3 7 7 11 12 11 10 10 9 9
12 11 10 11 10 9 9 10 9 7 6 4 3 2 2 2 3 2 2 2 1 2 3 4 5 4 3 2 2 1 1 1 3 5 6 8 12 12 11 10 9 9 9
10 9 9 9 8 8 8 9 9 7 6 4 3 3 3 2 2 3 2 4 3 3 5 7 6 6 5 4 3 2 1 1 4 6 6 10 12 12 11 10 9 9 9
9 9 7 7 6 6 6 6 5 4 4 3 1 2 2 2 1 1 4 5 5 4 6 8 8 7 5 3 4 4 1 2 4 6 7 12 11 11 10 9 9 8 8
9 7 8 6 5 4 4 4 2 2 3 2 1 0 0 1 0 1 1 4 4 3 2 6 6 3 3 2 2 2 2 3 4 6 8 12 11 10 10 9 8 8 8
8 8 7 6 5 4 4 3 3 2 2 2 1 1 1 1 2 2 1 1 1 1 1 2 2 2 2 2 2 3 3 4 5 5 7 12 11 10 9 9 8 7 7
7 7 7 6 6 4 3 1 2 2 2 2 2 1 1 1 2 2 2 2 2 2 2 2 3 4 3 2 2 3 4 5 6 6 6 12 11 10 9 9 8 7 7
7 6 7 7 6 4 3 1 1 2 2 2 2 2 1 2 2 2 2 2 2 2 2 2 3 3 2 2 3 3 4 4 5 6 6 8 10 10 9 8 7 7 6
7 6 6 7 6 4 3 1 2 1 1 2 2 2 2 3 2 2 1 2 2 2 1 2 2 2 2 2 2 2 3 3 4 5 5 5 6 8 9 8 7 6 6
7 6 4 5 7 4 3 1 2 1 1 1 2 2 2 2 2 2 2 2 1 1 1 1 1 1 2 2 2 2 2 2 4 4 4 4 4 5 7 8 7 6 6
7 6 5 5 5 4 3 2 2 2 2 1 2 2 1 1 1 1 1 1 1 1 1 1 2 1 1 2 2 2 2 2 3 3 3 4 4 4 4 7 8 6 5
7 6 6 5 4 4 3 2 1 1 2 1 2 2 1 1 1 1 1 1 1 2 2 2 2 1 1 1 1 2 1 2 2 2 2 3 4 5 5 5 5 4 5
8 7 6 5 3 2 2 2 1 1 1 1 1 2 2 1 1 1 1 1 1 1 1 2 1 1 1 1 1 1 1 2 2 2 2 2 3 4 5 5 4 3 3
8 7 6 5 4 2 2 1 1 1 1 1 1 2 2 1 0 1 1 1 1 1 1 1 1 1 1 1 1 1 1 1 0 1 2 2 2 3 4 5 4 4 3
7 7 5 5 4 3 2 1 1 1 1 1 1 1 1 1 1 1 1 1 1 1 1 1 0 1 0 1 1 0 1 1 1 0 1 2 3 2 2 3 4 4 4
7 7 6 5 4 3 2 1 1 1 1 1 1 1 1 1 1 1 1 1 1 1 0 0 1 0 1 0 0 0 0 1 1 1 0 1 2 2 2 2 3 3 4
7 7 6 5 4 3 2 2 1 1 1 1 1 1 1 1 0 1 1 1 1 1 1 0 1 0 0 0 1 0 0 0 0 1 1 1 1 1 2 2 2 3 4
7 7 7 6 4 3 2 2 1 1 1 1 1 1 1 1 1 1 1 1 1 1 1 1 1 1 0 0 1 1 0 0 0 0 1 2 1 1 2 2 2 2 3
Wind_Direction
106 111 111 105 102 99 95 93 91 87 81 76 72 69 66 66 65 68 71 73 75 85 88 91 94 93 94 96 100 105 106 112 126 129 129 128 126 127 126 124 118 111 113
111 114 112 108 106 103 99 97 95 91 86 80 75 71 67 67 67 67 69 69 72 79 86 88 90 90 94 100 105 108 108 113 130 136 138 135 132 129 128 123 117 116 117
111 117 115 113 111 106 102 101 99 93 88 82 77 74 69 66 67 69 67 67 70 77 87 90 92 92 91 92 97 104 110 124 137 150 155 144 133 131 128 124 120 122 123
112 117 115 119 114 110 108 106 103 99 94 84 79 76 72 68 68 70 68 65 66 72 83 89 90 88 92 93 93 98 108 122 148 173 172 146 134 133 134 132 127 128 128
117 117 119 124 118 115 114 112 109 103 98 89 82 78 74 70 67 67 67 62 64 71 78 84 89 89 92 99 99 99 104 125 155 205 144 124 121 131 136 134 131 132 133
121 119 124 127 124 122 121 117 113 108 100 94 89 84 78 74 69 65 66 66 67 74 81 84 89 92 92 102 103 100 83 13 339 164 119 120 122 131 133 133 131 133 134
117 120 129 132 130 127 125 123 120 113 104 99 95 89 82 79 78 69 62 67 70 76 86 90 92 93 92 99 106 129 113 322 226 110 107 113 122 131 133 132 132 134 133
121 123 131 136 135 135 133 129 127 123 116 109 103 98 93 87 89 84 72 67 73 86 101 109 108 104 101 100 108 95 343 304 148 105 109 114 126 130 131 129 128 129 130
120 125 136 141 144 144 143 141 137 137 135 129 122 118 117 119 114 105 93 78 87 124 142 142 140 136 146 167 182 345 336 335 94 110 113 113 125 127 126 125 127 129 129
122 126 134 137 144 151 151 152 152 153 148 145 154 157 150 158 152 150 152 159 191 198 188 177 170 169 181 198 217 257 329 27 111 105 101 115 123 125 125 123 125 128 132
123 128 135 135 144 151 146 145 155 163 159 164 189 195 205 211 175 180 166 181 199 214 200 188 185 185 184 190 209 219 286 89 99 97 98 118 123 124 123 123 126 131 136
135 135 133 135 139 140 133 137 155 157 152 184 188 178 212 260 251 173 158 186 202 210 198 188 186 184 186 179 192 189 190 99 97 103 109 121 122 123 124 126 130 134 138
140 135 130 127 120 120 118 138 140 141 150 165 112 4 263 315 14 72 153 176 196 196 187 165 173 179 176 168 157 143 130 100 93 98 116 122 122 123 125 126 129 135 133
136 135 128 127 120 111 106 124 142 145 143 132 127 341 32 6 13 36 30 72 139 127 95 117 133 124 103 104 110 107 103 99 96 103 124 127 128 130 129 128 130 134 136
132 133 128 115 106 99 89 109 119 117 114 109 100 62 14 36 21 35 30 26 34 40 76 87 93 91 86 81 100 93 88 91 104 113 129 139 140 139 137 136 133 134 140
129 128 123 120 111 106 104 94 98 100 92 98 97 85 41 43 34 27 41 29 32 33 42 74 94 102 103 95 76 78 85 94 104 119 131 140 144 144 142 140 139 141 145
122 116 117 126 115 116 112 110 107 91 118 108 106 87 63 50 28 16 42 50 33 43 41 62 85 114 124 112 98 89 89 96 107 116 131 141 149 148 148 148 149 152 156
123 115 116 122 119 123 110 95 83 73 71 92 105 94 77 70 36 7 18 42 12 37 65 95 93 97 104 104 101 89 93 103 112 119 127 136 144 149 155 158 158 162 168
116 117 115 109 119 127 125 119 86 81 73 74 93 98 105 109 94 34 18 26 351 42 47 34 73 89 97 107 125 120 112 116 121 125 131 134 134 136 145 157 161 165 172
117 113 116 114 117 129 127 130 106 92 84 80 83 98 115 106 94 63 75 43 24 46 43 44 58 54 79 90 92 87 90 113 111 110 126 129 136 144 145 147 158 164 158
122 120 117 116 114 127 123 131 130 114 102 92 106 113 102 80 80 75 49 88 74 66 57 55 59 72 86 117 109 92 95 122 121 128 131 132 147 151 146 148 155 155 162
132 131 125 126 124 116 92 103 126 137 148 131 95 99 120 130 168 158 108 75 87 75 67 59 62 33 66 79 126 136 141 95 64 159 148 151 146 141 144 153 151 148 154
133 135 137 128 130 122 104 86 84 106 129 109 109 109 116 143 153 51 120 102 94 87 86 94 327 102 101 350 47 125 143 143 130 117 168 139 136 134 138 137 149 154 155
142 135 126 125 126 125 130 129 145 143 136 136 133 114 101 91 108 129 108 100 77 90 102 197 116 117 125 248 311 27 141 138 150 164 237 130 141 143 152 159 149 146 144
145 140 134 125 119 118 122 109 114 110 111 98 111 118 132 127 111 114 111 114 125 124 144 232 108 94 117 228 285 354 325 248 217 160 166 165 166 161 160 153 148 155 150
141 135 132 127 123 123 123 110 109 76 85 95 103 133 174 169 168 137 128 144 174 181 187 205 200 181 180 289 334 346 279 299 266 200 165 173 170 184 172 167 162 174 164